EST,Max TemperatureF,Mean TemperatureF,Min TemperatureF,Max Dew PointF,MeanDew PointF,Min DewpointF,Max Humidity, Mean Humidity, Min Humidity, Max Sea Level PressureIn, Mean Sea Level PressureIn, Min Sea Level PressureIn, Max VisibilityMiles, Mean VisibilityMiles, Min VisibilityMiles, Max Wind SpeedMPH, Mean Wind SpeedMPH, Max Gust SpeedMPH,PrecipitationIn, CloudCover, Events, WindDirDegrees
2012-11-1,51,46,41,39,38,37,88,72,62,29.78,29.71,29.69,10,10,10,17,6,24,0.00,4,,299
2012-11-2,53,48,43,39,36,32,79,66,47,29.93,29.81,29.77,10,10,10,21,10,29,0.00,4,,305
2012-11-3,48,46,43,36,33,32,68,63,57,30.09,30.00,29.93,10,10,10,21,13,32,0.00,6,,316
2012-11-4,50,42,34,36,33,31,97,74,54,30.11,30.08,30.04,10,10,10,12,5,18,0.00,2,,337
2012-11-5,46,39,31,35,32,28,91,77,50,30.21,30.12,30.05,10,10,10,16,4,20,0.00,4,,17
2012-11-6,46,37,28,36,30,26,96,81,57,30.24,30.18,30.08,10,10,10,10,3,,0.00,3,,47
2012-11-7,41,38,35,37,35,32,100,88,70,29.94,29.91,29.87,10,8,5,18,11,21,0.00,8,Rain,9
2012-11-8,53,46,39,37,28,25,70,50,33,30.02,29.94,29.90,10,10,10,21,12,31,0.00,5,,327
2012-11-9,55,46,37,39,35,28,93,66,51,30.25,30.21,30.16,10,10,10,14,8,21,0.00,0,,320
2012-11-10,64,48,33,45,40,34,100,64,40,30.41,30.36,30.32,10,10,7,7,2,,0.00,2,,155
2012-11-11,69,56,44,48,46,45,100,68,43,30.50,30.48,30.45,10,10,10,10,7,,0.00,0,,169
2012-11-12,71,60,50,59,57,50,100,79,60,30.46,30.36,30.25,10,10,8,18,9,29,0.00,3,,174
2012-11-13,46,40,35,46,39,34,100,89,66,30.47,30.40,30.31,10,10,5,14,9,20,0.00,5,Rain,352
2012-11-14,48,40,32,32,30,28,100,68,50,30.57,30.52,30.47,10,10,10,14,7,18,0.00,1,,28
2012-11-15,48,42,37,37,36,32,87,75,66,30.42,30.38,30.34,10,10,10,10,7,,0.00,7,,40
2012-11-16,50,42,35,36,32,30,87,66,47,30.43,30.38,30.34,10,10,10,12,6,,0.00,4,,22
2012-11-17,53,42,32,41,36,28,100,71,54,30.62,30.59,30.53,10,10,10,13,7,18,0.00,0,,48
2012-11-18,53,45,37,43,40,37,100,76,62,30.62,30.57,30.36,10,10,7,14,10,17,0.00,6,,50
2012-11-19,50,46,41,45,42,39,93,85,76,30.46,30.34,30.24,10,10,10,12,9,,0.00,8,,26
2012-11-20,53,45,37,45,42,37,100,87,72,30.24,30.19,30.13,10,10,10,8,5,,0.00,6,,36
2012-11-21,56,44,33,41,35,32,100,85,44,30.26,30.20,30.13,10,10,7,10,2,,0.00,0,,35
2012-11-22,57,43,29,41,35,30,100,88,51,30.30,30.24,30.18,10,10,10,10,2,,0.00,0,,32
2012-11-23,60,46,33,46,39,33,100,89,45,30.18,30.01,29.81,10,6,0,18,2,23,0.00,5,Fog,220
2012-11-24,50,43,35,36,26,21,63,56,46,30.06,29.94,29.82,10,10,10,23,17,40,0.00,5,,328
2012-11-25,44,36,27,27,24,21,95,65,46,30.12,30.06,30.00,10,10,10,12,7,18,0.00,1,,293
2012-11-26,55,41,27,37,31,26,96,81,38,30.27,30.15,30.04,10,10,10,9,1,,0.00,0,,289
2012-11-27,46,42,37,46,39,34,100,95,82,30.28,30.23,30.18,10,8,2,12,4,,0.00,5,Rain,51
2012-11-28,46,38,30,38,32,28,100,85,50,30.41,30.31,30.25,10,9,5,14,5,17,0.00,5,,353
2012-11-29,50,38,27,34,29,26,100,83,43,30.49,30.42,30.39,10,10,7,12,2,18,0.00,0,,234
2012-11-30,53,40,26,41,34,27,100,92,54,30.41,30.38,30.35,10,7,2,6,2,,0.00,1,,179